{"data":{"norad_id":56787,"intl_designator":"2023-078W","name":"STARLINK-6326","alt_names":[],"object_type":"PAYLOAD","status":"ACTIVE","operator":null,"country":"US","launch_date":"2023-05-31","launch_site_code":"AFWTR","launch_vehicle":null,"mission":null,"orbit_class":"UNKNOWN","rcs_meters":null,"size_class":null,"mass_kg":null,"dimensions":null,"purposes":["comms"],"wikipedia_slug":null,"has_3d_model":false,"image_url":null,"decayed_at":null,"tle_current":{"epoch":"2026-09-20T22:00:03.000096Z","epoch_age_seconds":78953,"freshness":"FRESH","line1":"1 56787U 23078W   26263.91670139  .00005778  00000+0  39463-3 0  9992","line2":"2 56787  70.0018 192.0238 0005343 278.3502  10.9539 15.06692207  5660","mean_motion":15.06692207,"eccentricity":0.0005343,"inclination_deg":70.0018,"raan_deg":192.0238,"arg_perigee_deg":278.3502,"mean_anomaly_deg":10.9539,"bstar":0.00039463,"rev_number":566,"period_min":95.573601118387,"perigee_km":542.61639500338,"apogee_km":550.01586561843,"semimajor_km":6924.4531303109,"source":"CELESTRAK","updated_at":"2026-09-21T09:00:33.506967Z"}}}